Location: Grand Mazuras
(45.9128°N, 1.7636°E)
Time: 16:54:26
(UTC+00:00)

BREEZE-M DEB (TANK) - Pass Details

Date: 18 April 2021
Orbit: 289 x 13025 km, 49.6° (Epoch: 12 May)

Event Time Altitude Azimuth Distance (km) Brightness Sun altitude
Rises 20:31:32 0° 266° (W) 2,678 6.6 -17.4°
Reaches altitude 10° 20:32:55 10° 269° (W) 2,083 6.0 -17.6°
Maximum altitude 20:37:16 72° 354° (N) 1,264 4.2 -18.2°
Drops below altitude 10° 20:53:59 10° 80° (E) 7,333 7.6 -20.4°
Sets 21:04:44 0° 83° (E) 10,678 8.5 -21.7°
